| time (UTC) | temp F | wind direction | speed MPH | gust MPH | rain 1hr in | rain 24hr in | rain mn in | humidity % | barometer mb |
| 20260505173028 | 67 | 100 | 1.0 | 4.0 | 0.00 | 0.30 | 0.14 | 61 | 1014.1 |
| 20260505172524 | 67 | 262 | 2.0 | 4.0 | 0.00 | 0.30 | 0.14 | 59 | 1014.2 |
| 20260505172020 | 67 | 281 | 0.0 | 3.0 | 0.00 | 0.30 | 0.14 | 62 | 1014.1 |
| 20260505171519 | 67 | 281 | 2.0 | 7.0 | 0.00 | 0.30 | 0.14 | 61 | 1014.2 |
| 20260505171015 | 67 | 279 | 3.0 | 7.0 | 0.00 | 0.30 | 0.14 | 62 | 1014.1 |
| 20260505170530 | 67 | 358 | 0.0 | 4.0 | 0.00 | 0.30 | 0.14 | 63 | 1014.1 |
| 20260505170038 | 66 | 358 | 1.0 | 4.0 | 0.00 | 0.30 | 0.14 | 62 | 1014.0 |
| 20260505165519 | 66 | 41 | 0.0 | 2.0 | 0.00 | 0.30 | 0.14 | 64 | 1014.0 |
| 20260505165015 | 65 | 41 | 0.0 | 3.0 | 0.00 | 0.30 | 0.14 | 65 | 1014.0 |
| 20260505164531 | 64 | 42 | 2.0 | 4.0 | 0.00 | 0.30 | 0.14 | 67 | 1014.2 |
| 20260505164027 | 65 | 66 | 1.0 | 4.0 | 0.00 | 0.30 | 0.14 | 70 | 1014.1 |
| 20260505163602 | 65 | 35 | 2.0 | 4.0 | 0.00 | 0.30 | 0.14 | 70 | 1014.0 |
| 20260505163018 | 64 | 14 | 2.0 | 4.0 | 0.00 | 0.30 | 0.14 | 70 | 1013.9 |
| 20260505162514 | 64 | 337 | 2.0 | 3.0 | 0.00 | 0.30 | 0.14 | 72 | 1013.9 |
| 20260505162030 | 63 | 330 | 0.0 | 3.0 | 0.00 | 0.30 | 0.14 | 72 | 1014.1 |
| 20260505161526 | 63 | 330 | 2.0 | 3.0 | 0.00 | 0.30 | 0.14 | 73 | 1014.1 |
| 20260505161022 | 63 | 326 | 0.0 | 3.0 | 0.00 | 0.30 | 0.14 | 73 | 1014.2 |
| 20260505160518 | 63 | 326 | 2.0 | 4.0 | 0.00 | 0.30 | 0.14 | 74 | 1014.2 |
| 20260505153031 | 63 | 263 | 0.0 | 4.0 | 0.00 | 0.30 | 0.14 | 78 | 1014.0 |
| 20260505152527 | 63 | 261 | 0.0 | 4.0 | 0.00 | 0.30 | 0.14 | 79 | 1014.0 |
| 20260505152028 | 63 | 254 | 0.0 | 4.0 | 0.00 | 0.30 | 0.14 | 82 | 1014.0 |
| 20260505151523 | 63 | 254 | 1.0 | 4.0 | 0.00 | 0.30 | 0.14 | 83 | 1013.9 |
| 20260505151019 | 62 | 251 | 1.0 | 4.0 | 0.00 | 0.30 | 0.14 | 83 | 1013.9 |
| 20260505150515 | 62 | 235 | 0.0 | 3.0 | 0.00 | 0.30 | 0.14 | 85 | 1014.0 |
| 20260505140531 | 60 | 114 | 0.0 | 1.0 | 0.00 | 0.30 | 0.14 | 91 | 1013.8 |
| 20260505125032 | 59 | 113 | 0.0 | 1.0 | 0.00 | 0.30 | 0.14 | 92 | 1012.8 |
| 20260505124528 | 59 | 113 | 0.0 | 1.0 | 0.00 | 0.30 | 0.14 | 91 | 1012.9 |
| 20260505124023 | 59 | 113 | 0.0 | 2.0 | 0.01 | 0.30 | 0.14 | 91 | 1012.8 |
| 20260505123519 | 59 | 113 | 0.0 | 2.0 | 0.01 | 0.30 | 0.14 | 91 | 1012.7 |
| 20260505123015 | 59 | 113 | 0.0 | 2.0 | 0.02 | 0.30 | 0.14 | 91 | 1012.7 |
| 20260505122531 | 58 | 113 | 1.0 | 2.0 | 0.02 | 0.30 | 0.14 | 91 | 1012.6 |
| 20260505122031 | 59 | 113 | 0.0 | 1.0 | 0.02 | 0.30 | 0.14 | 91 | 1012.5 |
| 20260505121527 | 59 | 113 | 0.0 | 1.0 | 0.02 | 0.30 | 0.14 | 91 | 1012.6 |
| 20260505121024 | 58 | 113 | 0.0 | 1.0 | 0.02 | 0.30 | 0.14 | 91 | 1012.8 |
| 20260505120519 | 58 | 113 | 0.0 | 3.0 | 0.02 | 0.30 | 0.14 | 91 | 1012.4 |
| 20260505120028 | 58 | 113 | 1.0 | 4.0 | 0.02 | 0.30 | 0.14 | 91 | 1012.3 |
| 20260505115529 | 58 | 113 | 1.0 | 4.0 | 0.02 | 0.30 | 0.14 | 91 | 1012.5 |
| 20260505115025 | 59 | 113 | 0.0 | 4.0 | 0.02 | 0.30 | 0.14 | 91 | 1012.5 |
| 20260505114525 | 59 | 113 | 1.0 | 4.0 | 0.02 | 0.30 | 0.14 | 91 | 1012.3 |
| 20260505114021 | 59 | 110 | 2.0 | 3.0 | 0.01 | 0.29 | 0.13 | 91 | 1012.4 |
| 20260505113516 | 59 | 110 | 1.0 | 3.0 | 0.01 | 0.29 | 0.13 | 91 | 1012.3 |
| 20260505113012 | 59 | 110 | 1.0 | 5.0 | 0.00 | 0.28 | 0.12 | 91 | 1012.4 |
| 20260505112528 | 59 | 120 | 2.0 | 5.0 | 0.00 | 0.28 | 0.12 | 91 | 1012.5 |
| 20260505112024 | 59 | 117 | 2.0 | 5.0 | 0.00 | 0.28 | 0.12 | 92 | 1012.9 |
| 20260505111520 | 59 | 116 | 1.0 | 3.0 | 0.00 | 0.28 | 0.12 | 92 | 1012.7 |
| 20260505111019 | 59 | 116 | 1.0 | 3.0 | 0.01 | 0.28 | 0.12 | 92 | 1012.8 |
| 20260505110515 | 59 | 116 | 1.0 | 3.0 | 0.01 | 0.28 | 0.12 | 92 | 1012.8 |
| 20260505102019 | 58 | 91 | 2.0 | 5.0 | 0.02 | 0.28 | 0.12 | 91 | 1013.0 |
| 20260505101515 | 58 | 126 | 2.0 | 4.0 | 0.03 | 0.28 | 0.12 | 91 | 1013.4 |
| 20260505101031 | 58 | 127 | 0.0 | 4.0 | 0.02 | 0.27 | 0.11 | 91 | 1013.7 |
| 20260505100527 | 58 | 129 | 1.0 | 6.0 | 0.02 | 0.27 | 0.11 | 91 | 1014.0 |
| 20260505100036 | 58 | 129 | 3.0 | 6.0 | 0.02 | 0.27 | 0.11 | 91 | 1014.0 |
| 20260505095521 | 58 | 110 | 4.0 | 9.0 | 0.02 | 0.27 | 0.11 | 91 | 1013.8 |
| 20260505095017 | 58 | 101 | 3.0 | 9.0 | 0.02 | 0.27 | 0.11 | 91 | 1013.8 |
| 20260505094513 | 58 | 98 | 4.0 | 7.0 | 0.03 | 0.27 | 0.11 | 91 | 1014.0 |
| 20260505094029 | 58 | 83 | 3.0 | 7.0 | 0.03 | 0.27 | 0.11 | 91 | 1014.0 |
| 20260505093525 | 59 | 88 | 3.0 | 4.0 | 0.03 | 0.27 | 0.11 | 91 | 1014.0 |
| 20260505093020 | 59 | 88 | 1.0 | 5.0 | 0.03 | 0.27 | 0.11 | 91 | 1014.1 |
| 20260505092516 | 59 | 94 | 3.0 | 6.0 | 0.02 | 0.26 | 0.10 | 91 | 1014.2 |
| 20260505092016 | 59 | 98 | 4.0 | 11.0 | 0.03 | 0.26 | 0.10 | 91 | 1014.1 |
| 20260505091512 | 59 | 108 | 6.0 | 12.0 | 0.02 | 0.25 | 0.09 | 91 | 1014.3 |
| 20260505091027 | 59 | 92 | 5.0 | 13.0 | 0.02 | 0.25 | 0.09 | 91 | 1014.1 |
| 20260505090524 | 59 | 111 | 7.0 | 13.0 | 0.02 | 0.25 | 0.09 | 90 | 1014.1 |
| 20260505090030 | 59 | 150 | 7.0 | 12.0 | 0.03 | 0.25 | 0.09 | 90 | 1014.2 |
| 20260505085513 | 59 | 109 | 7.0 | 11.0 | 0.03 | 0.25 | 0.09 | 91 | 1014.1 |
| 20260505085028 | 59 | 92 | 4.0 | 10.0 | 0.02 | 0.24 | 0.08 | 91 | 1014.4 |
| 20260505084528 | 59 | 108 | 4.0 | 10.0 | 0.03 | 0.24 | 0.08 | 91 | 1014.6 |
| 20260505084024 | 59 | 114 | 4.0 | 9.0 | 0.04 | 0.24 | 0.08 | 91 | 1014.7 |
| 20260505083519 | 59 | 119 | 5.0 | 9.0 | 0.04 | 0.24 | 0.08 | 91 | 1014.7 |
| 20260505083015 | 59 | 114 | 4.0 | 8.0 | 0.05 | 0.24 | 0.08 | 91 | 1015.0 |
| 20260505082530 | 59 | 98 | 4.0 | 8.0 | 0.06 | 0.24 | 0.08 | 91 | 1015.3 |
| 20260505082026 | 59 | 100 | 4.0 | 6.0 | 0.05 | 0.23 | 0.07 | 91 | 1015.6 |
| 20260505081522 | 59 | 119 | 2.0 | 6.0 | 0.06 | 0.23 | 0.07 | 91 | 1015.8 |
| 20260505081022 | 59 | 177 | 2.0 | 9.0 | 0.06 | 0.23 | 0.07 | 91 | 1015.8 |
| 20260505080517 | 59 | 85 | 4.0 | 9.0 | 0.06 | 0.23 | 0.07 | 92 | 1015.7 |
| 20260505080045 | 59 | 90 | 4.0 | 8.0 | 0.06 | 0.22 | 0.06 | 92 | 1015.9 |
| 20260505075526 | 59 | 113 | 3.0 | 7.0 | 0.06 | 0.22 | 0.06 | 92 | 1016.2 |
| 20260505075022 | 59 | 127 | 2.0 | 4.0 | 0.06 | 0.22 | 0.06 | 92 | 1016.4 |
| 20260505074518 | 59 | 129 | 2.0 | 4.0 | 0.06 | 0.21 | 0.05 | 92 | 1016.5 |
| 20260505074015 | 59 | 128 | 2.0 | 4.0 | 0.05 | 0.20 | 0.04 | 91 | 1016.5 |
| 20260505073514 | 59 | 137 | 1.0 | 2.0 | 0.06 | 0.20 | 0.04 | 91 | 1016.6 |
| 20260505073030 | 59 | 137 | 1.0 | 2.0 | 0.05 | 0.19 | 0.03 | 91 | 1016.5 |
| 20260505072527 | 59 | 137 | 0.0 | 3.0 | 0.05 | 0.18 | 0.02 | 91 | 1016.7 |
| 20260505072023 | 59 | 137 | 1.0 | 3.0 | 0.05 | 0.18 | 0.02 | 90 | 1016.4 |
| 20260505071519 | 59 | 137 | 1.0 | 3.0 | 0.05 | 0.17 | 0.01 | 90 | 1016.4 |
| 20260505071014 | 59 | 140 | 1.0 | 3.0 | 0.05 | 0.17 | 0.01 | 90 | 1016.5 |
| 20260505070530 | 59 | 142 | 0.0 | 3.0 | 0.06 | 0.17 | 0.01 | 90 | 1016.4 |
| 20260505070037 | 59 | 142 | 1.0 | 3.0 | 0.05 | 0.16 | 0.00 | 90 | 1016.3 |
| 20260505065523 | 59 | 143 | 0.0 | 2.0 | 0.05 | 0.16 | 0.16 | 90 | 1016.2 |
| 20260505065018 | 59 | 143 | 1.0 | 2.0 | 0.06 | 0.16 | 0.16 | 90 | 1016.2 |
| 20260505064514 | 59 | 144 | 1.0 | 2.0 | 0.05 | 0.15 | 0.15 | 90 | 1016.2 |
| 20260505064030 | 59 | 144 | 0.0 | 5.0 | 0.05 | 0.15 | 0.15 | 89 | 1016.4 |
| 20260505063526 | 59 | 144 | 1.0 | 5.0 | 0.04 | 0.14 | 0.14 | 88 | 1016.3 |
| 20260505063021 | 59 | 148 | 3.0 | 4.0 | 0.05 | 0.14 | 0.14 | 88 | 1016.2 |
| 20260505062517 | 59 | 97 | 2.0 | 4.0 | 0.04 | 0.13 | 0.13 | 88 | 1016.3 |
| 20260505062017 | 59 | 85 | 0.0 | 1.0 | 0.05 | 0.13 | 0.13 | 88 | 1016.3 |
| 20260505061513 | 59 | 85 | 0.0 | 1.0 | 0.04 | 0.12 | 0.12 | 89 | 1016.2 |
| 20260505061028 | 59 | 85 | 0.0 | 2.0 | 0.05 | 0.12 | 0.12 | 89 | 1016.2 |
| 20260505060524 | 59 | 85 | 0.0 | 3.0 | 0.04 | 0.11 | 0.11 | 88 | 1016.1 |
| 20260505060033 | 59 | 85 | 1.0 | 4.0 | 0.04 | 0.11 | 0.11 | 88 | 1016.0 |
| 20260505055514 | 59 | 86 | 1.0 | 4.0 | 0.04 | 0.11 | 0.11 | 88 | 1015.9 |
| 20260505055030 | 58 | 90 | 2.0 | 4.0 | 0.04 | 0.10 | 0.10 | 89 | 1015.9 |
| 20260505054529 | 58 | 159 | 1.0 | 2.0 | 0.04 | 0.10 | 0.10 | 88 | 1015.9 |
| 20260505054025 | 58 | 159 | 0.0 | 4.0 | 0.05 | 0.10 | 0.10 | 88 | 1015.9 |
| 20260505053521 | 58 | 159 | 1.0 | 4.0 | 0.04 | 0.09 | 0.09 | 87 | 1015.8 |
| 20260505053017 | 58 | 175 | 1.0 | 5.0 | 0.04 | 0.09 | 0.09 | 87 | 1015.9 |
| 20260505052513 | 58 | 193 | 1.0 | 5.0 | 0.04 | 0.09 | 0.09 | 87 | 1015.9 |
| 20260505052028 | 58 | 140 | 2.0 | 10.0 | 0.04 | 0.08 | 0.08 | 87 | 1015.7 |
| 20260505051524 | 58 | 138 | 2.0 | 8.0 | 0.04 | 0.08 | 0.08 | 87 | 1015.8 |
| 20260505051023 | 58 | 132 | 3.0 | 8.0 | 0.03 | 0.07 | 0.07 | 86 | 1015.6 |
| 20260505050518 | 58 | 151 | 2.0 | 4.0 | 0.03 | 0.07 | 0.07 | 85 | 1015.7 |
| 20260505041519 | 58 | 198 | 0.0 | 1.0 | 0.01 | 0.04 | 0.04 | 82 | 1016.2 |
| 20260505041015 | 58 | 198 | 0.0 | 1.0 | 0.01 | 0.04 | 0.04 | 81 | 1016.3 |
| 20260505040531 | 59 | 198 | 0.0 | 1.0 | 0.01 | 0.04 | 0.04 | 81 | 1016.2 |
| 20260505040038 | 59 | 198 | 0.0 | 2.0 | 0.01 | 0.04 | 0.04 | 77 | 1016.3 |
| 20260505035523 | 59 | 197 | 0.0 | 1.0 | 0.01 | 0.04 | 0.04 | 75 | 1016.2 |
| 20260505035019 | 60 | 197 | 0.0 | 2.0 | 0.00 | 0.03 | 0.03 | 71 | 1016.2 |
| 20260505034515 | 60 | 197 | 0.0 | 3.0 | 0.00 | 0.03 | 0.03 | 69 | 1016.0 |
| 20260505034030 | 60 | 173 | 1.0 | 7.0 | 0.00 | 0.03 | 0.03 | 68 | 1015.8 |
| 20260505033526 | 60 | 133 | 1.0 | 7.0 | 0.00 | 0.03 | 0.03 | 67 | 1015.5 |
| 20260505033022 | 60 | 123 | 2.0 | 9.0 | 0.00 | 0.03 | 0.03 | 68 | 1015.4 |
| 20260505032518 | 60 | 111 | 4.0 | 9.0 | 0.00 | 0.03 | 0.03 | 67 | 1015.1 |
| 20260505032017 | 60 | 144 | 4.0 | 12.0 | 0.00 | 0.03 | 0.03 | 67 | 1015.2 |
| 20260505031513 | 60 | 123 | 4.0 | 12.0 | 0.00 | 0.03 | 0.03 | 67 | 1015.2 |
| 20260505031029 | 60 | 100 | 7.0 | 12.0 | 0.00 | 0.03 | 0.03 | 66 | 1015.2 |
| 20260505030525 | 61 | 118 | 8.0 | 12.0 | 0.01 | 0.03 | 0.03 | 65 | 1015.1 |
| 20260505030033 | 61 | 116 | 7.0 | 13.0 | 0.01 | 0.03 | 0.03 | 64 | 1015.1 |
| 20260505025515 | 62 | 67 | 8.0 | 13.0 | 0.01 | 0.03 | 0.03 | 61 | 1015.3 |
| 20260505025011 | 62 | 84 | 7.0 | 13.0 | 0.02 | 0.03 | 0.03 | 62 | 1015.3 |
| 20260505024511 | 61 | 113 | 8.0 | 13.0 | 0.02 | 0.03 | 0.03 | 63 | 1015.4 |
| 20260505024026 | 61 | 102 | 3.0 | 10.0 | 0.02 | 0.03 | 0.03 | 62 | 1015.4 |
| 20260505023522 | 61 | 142 | 2.0 | 6.0 | 0.03 | 0.03 | 0.03 | 62 | 1015.5 |
| 20260505023018 | 62 | 93 | 0.0 | 10.0 | 0.03 | 0.03 | 0.03 | 57 | 1015.4 |
| 20260505022514 | 62 | 226 | 1.0 | 16.0 | 0.03 | 0.03 | 0.03 | 54 | 1015.3 |
| 20260505022029 | 63 | 219 | 6.0 | 16.0 | 0.03 | 0.03 | 0.03 | 46 | 1015.3 |
| 20260505021525 | 63 | 184 | 7.0 | 16.0 | 0.03 | 0.03 | 0.03 | 47 | 1015.2 |
| 20260505021025 | 62 | 222 | 4.0 | 13.0 | 0.03 | 0.03 | 0.03 | 54 | 1015.2 |
| 20260505020521 | 61 | 204 | 6.0 | 14.0 | 0.02 | 0.02 | 0.02 | 58 | 1015.2 |
| 20260505020028 | 61 | 248 | 4.0 | 17.0 | 0.02 | 0.02 | 0.02 | 62 | 1015.2 |
| 20260505015529 | 61 | 250 | 7.0 | 17.0 | 0.02 | 0.02 | 0.02 | 64 | 1015.3 |
| 20260505015025 | 62 | 242 | 7.0 | 15.0 | 0.01 | 0.01 | 0.01 | 64 | 1015.4 |
| 20260505014522 | 63 | 249 | 7.0 | 17.0 | 0.01 | 0.01 | 0.01 | 58 | 1015.3 |
| 20260505014018 | 64 | 256 | 6.0 | 17.0 | 0.01 | 0.01 | 0.01 | 53 | 1015.3 |
| 20260505013518 | 64 | 229 | 5.0 | 14.0 | 0.00 | 0.00 | 0.00 | 50 | 1015.4 |
| 20260505013014 | 65 | 243 | 4.0 | 12.0 | 0.00 | 0.00 | 0.00 | 48 | 1015.4 |
| 20260505012529 | 66 | 256 | 4.0 | 10.0 | 0.00 | 0.00 | 0.00 | 51 | 1015.3 |
| 20260505012024 | 66 | 277 | 4.0 | 10.0 | 0.00 | 0.00 | 0.00 | 45 | 1015.2 |
| 20260505011520 | 66 | 309 | 1.0 | 3.0 | 0.00 | 0.00 | 0.00 | 45 | 1015.0 |
| 20260505011016 | 66 | 322 | 0.0 | 3.0 | 0.00 | 0.00 | 0.00 | 47 | 1015.0 |
| 20260505010532 | 67 | 280 | 0.0 | 7.0 | 0.00 | 0.00 | 0.00 | 47 | 1014.7 |
| 20260505010039 | 67 | 280 | 2.0 | 7.0 | 0.00 | 0.00 | 0.00 | 43 | 1014.4 |
| 20260505005524 | 67 | 280 | 2.0 | 8.0 | 0.00 | 0.00 | 0.00 | 39 | 1014.4 |
| 20260505005020 | 67 | 200 | 3.0 | 10.0 | 0.00 | 0.00 | 0.00 | 41 | 1014.5 |
| 20260505004516 | 67 | 232 | 4.0 | 15.0 | 0.00 | 0.00 | 0.00 | 42 | 1014.7 |
| 20260505004032 | 66 | 243 | 7.0 | 15.0 | 0.00 | 0.00 | 0.00 | 45 | 1014.8 |
| 20260505003527 | 66 | 243 | 4.0 | 11.0 | 0.00 | 0.00 | 0.00 | 51 | 1015.0 |
| 20260505003024 | 67 | 238 | 2.0 | 11.0 | 0.00 | 0.00 | 0.00 | 49 | 1014.8 |
| 20260505002520 | 66 | 240 | 3.0 | 14.0 | 0.00 | 0.00 | 0.00 | 49 | 1014.9 |
| 20260505002019 | 67 | 252 | 5.0 | 14.0 | 0.00 | 0.00 | 0.00 | 45 | 1014.8 |
| 20260505001515 | 68 | 237 | 5.0 | 14.0 | 0.00 | 0.00 | 0.00 | 45 | 1014.9 |
| 20260505001031 | 69 | 266 | 2.0 | 8.0 | 0.00 | 0.00 | 0.00 | 46 | 1014.7 |
| 20260505000527 | 70 | 267 | 2.0 | 6.0 | 0.00 | 0.00 | 0.00 | 46 | 1014.6 |
| 20260505000035 | 71 | 266 | 2.0 | 8.0 | 0.00 | 0.00 | 0.00 | 41 | 1014.7 |
| 20260504235516 | 72 | 290 | 4.0 | 10.0 | 0.00 | 0.00 | 0.00 | 37 | 1014.6 |
| 20260504235032 | 72 | 282 | 1.0 | 10.0 | 0.00 | 0.00 | 0.00 | 34 | 1014.4 |
| 20260504234532 | 73 | 267 | 1.0 | 6.0 | 0.00 | 0.00 | 0.00 | 35 | 1014.4 |
| 20260504234028 | 73 | 254 | 2.0 | 7.0 | 0.00 | 0.00 | 0.00 | 33 | 1014.4 |
| 20260504233523 | 73 | 265 | 2.0 | 7.0 | 0.00 | 0.00 | 0.00 | 37 | 1014.3 |
| 20260504233019 | 73 | 278 | 1.0 | 9.0 | 0.00 | 0.00 | 0.00 | 35 | 1014.4 |
| 20260504232514 | 73 | 239 | 2.0 | 9.0 | 0.00 | 0.00 | 0.00 | 37 | 1014.7 |
| 20260504232030 | 73 | 309 | 0.0 | 10.0 | 0.00 | 0.00 | 0.00 | 39 | 1014.8 |
| 20260504231526 | 73 | 296 | 3.0 | 11.0 | 0.00 | 0.00 | 0.00 | 36 | 1015.1 |
| 20260504231025 | 74 | 247 | 1.0 | 12.0 | 0.00 | 0.00 | 0.00 | 31 | 1015.0 |
| 20260504230521 | 75 | 282 | 4.0 | 11.0 | 0.00 | 0.00 | 0.00 | 29 | 1015.3 |
| 20260504230029 | 75 | 275 | 5.0 | 17.0 | 0.00 | 0.00 | 0.00 | 30 | 1015.0 |
| 20260504225530 | 76 | 250 | 8.0 | 23.0 | 0.00 | 0.00 | 0.00 | 27 | 1015.0 |
| 20260504225027 | 75 | 242 | 8.0 | 23.0 | 0.00 | 0.00 | 0.00 | 26 | 1014.6 |
| 20260504224523 | 77 | 253 | 11.0 | 18.0 | 0.00 | 0.00 | 0.00 | 25 | 1014.4 |
| 20260504224019 | 77 | 251 | 8.0 | 16.0 | 0.00 | 0.00 | 0.00 | 22 | 1014.3 |
| 20260504223519 | 79 | 206 | 5.0 | 12.0 | 0.00 | 0.00 | 0.00 | 21 | 1014.2 |
| 20260504223015 | 79 | 259 | 7.0 | 14.0 | 0.00 | 0.00 | 0.00 | 20 | 1014.2 |
| 20260504222531 | 79 | 287 | 5.0 | 13.0 | 0.00 | 0.00 | 0.00 | 20 | 1014.4 |
| 20260504222026 | 79 | 295 | 8.0 | 16.0 | 0.00 | 0.00 | 0.00 | 20 | 1014.4 |
| 20260504221521 | 80 | 266 | 9.0 | 15.0 | 0.00 | 0.00 | 0.00 | 18 | 1014.3 |
| 20260504221016 | 81 | 225 | 5.0 | 11.0 | 0.00 | 0.00 | 0.00 | 18 | 1014.1 |
| 20260504220531 | 81 | 260 | 5.0 | 14.0 | 0.00 | 0.00 | 0.00 | 19 | 1014.1 |
| 20260504220038 | 80 | 271 | 7.0 | 16.0 | 0.00 | 0.00 | 0.00 | 19 | 1014.0 |
| 20260504215522 | 81 | 276 | 4.0 | 15.0 | 0.00 | 0.00 | 0.00 | 19 | 1014.1 |
| 20260504215019 | 81 | 270 | 8.0 | 15.0 | 0.00 | 0.00 | 0.00 | 19 | 1014.1 |
| 20260504214514 | 82 | 285 | 5.0 | 12.0 | 0.00 | 0.00 | 0.00 | 18 | 1014.1 |
| 20260504214029 | 83 | 283 | 5.0 | 12.0 | 0.00 | 0.00 | 0.00 | 17 | 1014.1 |
| 20260504213524 | 84 | 285 | 5.0 | 12.0 | 0.00 | 0.00 | 0.00 | 16 | 1014.0 |
| 20260504213019 | 84 | 262 | 7.0 | 12.0 | 0.00 | 0.00 | 0.00 | 16 | 1013.9 |
| 20260504212514 | 83 | 6 | 2.0 | 12.0 | 0.00 | 0.00 | 0.00 | 16 | 1013.9 |
| 20260504212033 | 84 | 344 | 3.0 | 12.0 | 0.00 | 0.00 | 0.00 | 16 | 1013.7 |
| 20260504211529 | 85 | 282 | 3.0 | 10.0 | 0.00 | 0.00 | 0.00 | 16 | 1013.8 |
| 20260504211024 | 84 | 304 | 2.0 | 10.0 | 0.00 | 0.00 | 0.00 | 16 | 1013.7 |
| 20260504210520 | 84 | 283 | 1.0 | 13.0 | 0.00 | 0.00 | 0.00 | 16 | 1013.8 |
| 20260504210028 | 83 | 287 | 5.0 | 13.0 | 0.00 | 0.00 | 0.00 | 16 | 1014.0 |
| 20260504205529 | 84 | 257 | 6.0 | 13.0 | 0.00 | 0.00 | 0.00 | 15 | 1014.1 |
| 20260504205025 | 84 | 245 | 6.0 | 14.0 | 0.00 | 0.00 | 0.00 | 15 | 1014.1 |
| 20260504204525 | 83 | 214 | 5.0 | 14.0 | 0.00 | 0.00 | 0.00 | 16 | 1013.9 |
| 20260504204022 | 83 | 226 | 7.0 | 14.0 | 0.00 | 0.00 | 0.00 | 16 | 1014.0 |
| 20260504203518 | 83 | 257 | 5.0 | 14.0 | 0.00 | 0.00 | 0.00 | 15 | 1013.9 |
| 20260504203013 | 83 | 260 | 6.0 | 14.0 | 0.00 | 0.00 | 0.00 | 16 | 1014.0 |
| 20260504202530 | 83 | 256 | 5.0 | 13.0 | 0.00 | 0.00 | 0.00 | 15 | 1014.0 |
| 20260504202025 | 83 | 275 | 5.0 | 14.0 | 0.00 | 0.00 | 0.00 | 16 | 1013.9 |
| 20260504201520 | 84 | 244 | 8.0 | 14.0 | 0.00 | 0.00 | 0.00 | 15 | 1014.0 |
| 20260504201020 | 84 | 241 | 4.0 | 13.0 | 0.00 | 0.00 | 0.00 | 16 | 1014.0 |
| 20260504200516 | 83 | 239 | 5.0 | 13.0 | 0.00 | 0.00 | 0.00 | 16 | 1014.0 |
| 20260504200042 | 83 | 254 | 2.0 | 17.0 | 0.00 | 0.00 | 0.00 | 17 | 1014.3 |
| 20260504195522 | 83 | 286 | 5.0 | 17.0 | 0.00 | 0.00 | 0.00 | 17 | 1014.1 |
| 20260504195017 | 83 | 221 | 3.0 | 8.0 | 0.00 | 0.00 | 0.00 | 16 | 1014.1 |
| 20260504194533 | 83 | 228 | 4.0 | 12.0 | 0.00 | 0.00 | 0.00 | 16 | 1014.1 |
| 20260504194028 | 83 | 267 | 4.0 | 13.0 | 0.00 | 0.00 | 0.00 | 16 | 1014.2 |
| 20260504193523 | 82 | 214 | 3.0 | 13.0 | 0.00 | 0.00 | 0.00 | 16 | 1014.1 |
| 20260504193023 | 81 | 159 | 3.0 | 14.0 | 0.00 | 0.00 | 0.00 | 17 | 1014.0 |
| 20260504192519 | 81 | 196 | 5.0 | 14.0 | 0.00 | 0.00 | 0.00 | 18 | 1014.1 |
| 20260504192014 | 83 | 215 | 5.0 | 12.0 | 0.00 | 0.00 | 0.00 | 17 | 1014.3 |
| 20260504191529 | 82 | 214 | 6.0 | 10.0 | 0.00 | 0.00 | 0.00 | 18 | 1014.1 |
| 20260504191024 | 81 | 234 | 2.0 | 15.0 | 0.00 | 0.00 | 0.00 | 19 | 1014.3 |
| 20260504190520 | 81 | 135 | 4.0 | 15.0 | 0.00 | 0.00 | 0.00 | 19 | 1014.3 |
| 20260504190027 | 81 | 105 | 3.0 | 7.0 | 0.00 | 0.00 | 0.00 | 19 | 1014.2 |
| 20260504185532 | 82 | 244 | 2.0 | 11.0 | 0.00 | 0.00 | 0.00 | 19 | 1014.1 |
| 20260504185028 | 81 | 200 | 6.0 | 11.0 | 0.00 | 0.00 | 0.00 | 19 | 1014.6 |
| 20260504184524 | 80 | 212 | 4.0 | 12.0 | 0.00 | 0.00 | 0.00 | 19 | 1014.6 |
| 20260504184019 | 81 | 214 | 2.0 | 11.0 | 0.00 | 0.00 | 0.00 | 19 | 1014.6 |
| 20260504183516 | 80 | 209 | 5.0 | 13.0 | 0.00 | 0.00 | 0.00 | 19 | 1014.8 |
| 20260504182515 | 82 | 298 | 4.0 | 11.0 | 0.00 | 0.00 | 0.00 | 18 | 1014.8 |
| 20260504182015 | 81 | 250 | 5.0 | 11.0 | 0.00 | 0.00 | 0.00 | 18 | 1015.0 |
| 20260504181531 | 81 | 269 | 2.0 | 16.0 | 0.00 | 0.00 | 0.00 | 19 | 1014.9 |
| 20260504181026 | 80 | 239 | 7.0 | 16.0 | 0.00 | 0.00 | 0.00 | 19 | 1014.9 |
| 20260504180522 | 81 | 318 | 6.0 | 14.0 | 0.00 | 0.00 | 0.00 | 20 | 1015.0 |
| 20260504180030 | 80 | 277 | 5.0 | 12.0 | 0.00 | 0.00 | 0.00 | 21 | 1015.0 |
| 20260504175513 | 80 | 280 | 4.0 | 12.0 | 0.00 | 0.00 | 0.00 | 22 | 1014.9 |
| 20260504175028 | 80 | 231 | 6.0 | 11.0 | 0.00 | 0.00 | 0.00 | 21 | 1015.0 |
| 20260504174528 | 79 | 159 | 2.0 | 6.0 | 0.00 | 0.00 | 0.00 | 24 | 1015.0 |
| 20260504174024 | 80 | 187 | 3.0 | 6.0 | 0.00 | 0.00 | 0.00 | 23 | 1015.0 |
| 20260504173520 | 78 | 104 | 3.0 | 6.0 | 0.00 | 0.00 | 0.00 | 24 | 1015.0 |